Regional Weather Roundup
Issued by NWS

Home | Current Version | Previous Version | Graphics & Text | Print | Product List | Glossary On
Versions: 1 2 3 4 5 6 7 8 9 10 11 12 13 14 15 16 17 18 19 20 21 22 23 24 25 26 27 28 29 30 31 32 33 34 35 36 37 38 39 40 41 42 43 44 45 46 47 48 49 50
827
ASUS44 KLIX 310011
RWRLA
LOUISIANA WEATHER ROUNDUP
NATIONAL WEATHER SERVICE NEW ORLEANS LA
700 PM CDT MON MAR 30 2015

NOTE: "FAIR" INDICATES FEW OR NO CLOUDS BELOW 12,000 FEET WITH NO
      SIGNIFICANT WEATHER AND/OR OBSTRUCTIONS TO VISIBILITY.
      SKY/WX - SKY CONDITION AND SIGNIFICANT WEATHER.
      TMP - AIR TEMPERATURE.    DP   - DEWPOINT TEMPERATURE.
      RH  - RELATIVE HUMIDITY.  PRES - PRESSURE.
      HX  - HEAT INDEX.         WCI  - WIND CHILL INDEX.

*  THESE STATIONS ARE NOT NWS OR FAA STATIONS AND ARE NOT UNDER
   NWS QUALITY CONTROL.

LAZ040-048-061>063-065-066-069-310100-
SOUTHEAST LOUISIANA

CITY           SKY/WX    TMP DP  RH WIND       PRES   REMARKS
N.O. AUDUBON   NOT AVBL
N.O. INTL ARPT PTCLDY    76  59  55 SW14      30.12S
6HR MIN TEMP:  76; 6HR MAX TEMP:  82;

N.O. LAKEFRONT MOCLDY    80  60  50 W3        30.12F
6HR MIN TEMP:  76; 6HR MAX TEMP:  82;

SLIDELL        CLEAR     78  61  55 SW3       30.11S
6HR MIN TEMP:  78; 6HR MAX TEMP:  82;

BATON ROUGE    PTCLDY    77  61  57 SW12      30.11S
6HR MIN TEMP:  77; 6HR MAX TEMP:  84;

BOOTHVILLE     CLEAR     74  65  73 SW12      30.16S
6HR MIN TEMP:  74; 6HR MAX TEMP:  78;

BELLE CHASSE   PTCLDY    74  62  66 SW12      30.12S
6HR MIN TEMP:  74; 6HR MAX TEMP:  81;

BOGALUSA*        N/A     80  55  41 W5        30.11F
6HR MIN TEMP:  79; 6HR MAX TEMP:  85;

GALLIANO*      CLEAR     75  62  63 SW9       30.15F
6HR MIN TEMP:  75; 6HR MAX TEMP:  82;

NEW ROADS*     FAIR      77  57  50 SW8       30.11S
6HR MIN TEMP:  77; 6HR MAX TEMP:  82;

GONZALES*      FAIR      76  61  60 SW6       30.12S
6HR MIN TEMP:  76; 6HR MAX TEMP:  82;

HAMMOND*       PTCLDY    79  57  47 W9        30.12S
HOUMA*         PTCLDY    73  64  73 SW6       30.15S
PORT FOURCHON* CLEAR     75  64  69 SW7       30.19F

$$

LAZ041-044-053-054-310100-
SOUTHWEST LOUISIANA

CITY           SKY/WX    TMP DP  RH WIND       PRES   REMARKS
LAKE CHARLES   CLEAR     73  64  73 S7        30.13S
6HR MIN TEMP:  73; 6HR MAX TEMP:  79;

LAFAYETTE      CLEAR     75  60  59 SW12      30.13S
6HR MIN TEMP:  75; 6HR MAX TEMP:  82;

PATTERSON      CLEAR     73  61  64 SW7       30.15F
6HR MIN TEMP:  73; 6HR MAX TEMP:  79;

SALT POINT       N/A     72  65  78 CALM      30.14F
6HR MIN TEMP:  72; 6HR MAX TEMP:  76;

NEW IBERIA     CLEAR     75  61  61 SW12      30.14F
6HR MIN TEMP:  75; 6HR MAX TEMP:  82;

CHENAULT AIRPK NOT AVBL

$$

LAZ027-028-310100-
CENTRAL LOUISIANA

CITY           SKY/WX    TMP DP  RH WIND       PRES   REMARKS
FORT POLK      CLEAR     78  60  53 S12       30.08S
6HR MIN TEMP:  76; 6HR MAX TEMP:  82;

ALEXANDRIA INT CLEAR     78  57  48 S7        30.07S
6HR MIN TEMP:  76; 6HR MAX TEMP:  82;

ALEXANDRIA     PTCLDY    77  57  50 S6        30.09S
6HR MIN TEMP:  77; 6HR MAX TEMP:  83;


$$

LAZ001-002-310100-
NORTHWEST LOUISIANA

CITY           SKY/WX    TMP DP  RH WIND       PRES   REMARKS
SHREVEPORT     MOCLDY    74  63  68 CALM      30.08F
6HR MIN TEMP:  72; 6HR MAX TEMP:  74;

BARKSDALE AFB  CLOUDY    73  63  71 CALM      30.08F
6HR MIN TEMP:  72; 6HR MAX TEMP:  75;

DTN SHREVEPORT CLOUDY    73  61  65 CALM      30.09F
6HR MIN TEMP:  71; 6HR MAX TEMP:  73;


$$

LAZ014-016-310100-
NORTHEAST LOUISIANA

CITY           SKY/WX    TMP DP  RH WIND       PRES   REMARKS
MONROE         CLOUDY    74  63  68 CALM      30.10S
6HR MIN TEMP:  70; 6HR MAX TEMP:  79;

TALLULAH       CLOUDY    72  61  68 N3        30.10S
6HR MIN TEMP:  72; 6HR MAX TEMP:  79;


$$




USA.gov is the U.S. government's official web portal to all federal, state and local government web resources and services.